Home   Weather   Kūh-e Pak Malī   Past weeks
Flag for Iran

Past Weather in Kūh-e Pak Malī, Iran — Yesterday and Last 2 Weeks

Now
55 °F

Clear.


Feels Like: 55 °F
Forecast: 72 / 47 °F
Wind: 2 mph from West

Location: Ghazvin
Current Time: Oct 20, 2020 at 8:34:29 pm
Latest Report: Oct 20, 2020 at 7:30 pm
Visibility: 10 mi
Pressure30.15 "Hg
Humidity: 55%
Dew Point: 39 °F
Location of Kūh-e Pak MalīLocation

Past Weather in Kūh-e Pak Malī — Graph

°F

Kūh-e Pak Malī Temperature Yesterday

Maximum temperature yesterday: 77 °F (at 2:30 pm)
Minimum temperature yesterday: 41 °F (at 6:30 am)
Average temperature yesterday: 59 °F

High & Low Weather Summary for the Past Weeks

 TemperatureHumidityPressure
High81 °F (Oct 20, 1:30 pm)100% (Oct 6, 6:30 am)30.39 "Hg (Oct 6, 6:30 am)
Low39 °F (Oct 10, 5:30 am)12% (Oct 18, 1:30 pm)30.09 "Hg (Oct 15, 3:30 pm)
Average57 °F52%30.19 "Hg
* Reported Oct 5 7:30 pm — Oct 20 7:30 pm, Kūh-e Pak Malī. Weather by CustomWeather, © 2020

Note: Actual official high and low records may vary slightly from our data, if they occured in-between our weather recording intervals... More about our weather records

Kūh-e Pak Malī Weather History for the Previous 24 Hours

Scroll right to see more
 ConditionsComfort  
Time TempWeatherWind HumidityBarometerVisibility
7:30 pm
Tue, Oct 20
55 °FClear.2 mph55%30.15 "Hg10 mi
6:30 pm63 °FClear.2 mph39%30.12 "Hg10 mi
5:30 pm68 °FSunny.2 mph33%30.12 "Hg10 mi
4:30 pm79 °FSunny.2 mph20%30.09 "Hg10 mi
3:30 pm81 °FSunny.5 mph18%30.09 "Hg10 mi
2:30 pm81 °FSunny.7 mph17%30.09 "Hg10 mi
1:30 pm81 °FSunny.5 mph12%30.09 "Hg10 mi
12:30 pm79 °FSunny.5 mph12%30.09 "Hg10 mi
11:30 am79 °FSunny.7 mph12%30.12 "Hg10 mi
10:30 am75 °FClear.7 mph18%30.15 "Hg4 mi
9:30 am66 °FSunny.5 mph28%30.15 "Hg10 mi
8:30 am64 °FHaze.No wind26%30.15 "Hg3 mi
7:30 am50 °FHaze.2 mph40%30.15 "Hg3 mi
6:30 am48 °FClear.5 mph32%30.12 "Hg4 mi
5:30 am50 °FClear.5 mph32%30.12 "Hg4 mi
4:30 am48 °FClear.5 mph34%30.09 "Hg4 mi
2:30 am46 °FClear.2 mph40%30.09 "Hg10 mi
1:30 am46 °FClear.2 mph40%30.12 "Hg10 mi
11:30 pm
Mon, Oct 19
52 °FClear.5 mph30%30.12 "Hg10 mi
10:30 pm54 °FClear.7 mph30%30.12 "Hg10 mi
8:30 pm55 °FClear.5 mph28%30.12 "Hg10 mi
Weather by CustomWeather, © 2020

See weather overview